Location: Unspecified
(53.0758°N, 0.0000°E)
Time: 06:24:23
(UTC+00:00)

NOAA 16 DEB - Visible Passes

Search period start: 04 April 2026 00:00
Search period end: 14 April 2026 00:00
Orbit: 755 x 775 km, 98.8° (Epoch: 28 March)

Date Brightness Start Highest point End Pass type
(mag) Time Alt. Az. Time Alt. Az. Time Alt. Az.
4 Apr ? 01:07:20 54° NNW 01:07:20 54° NNW 01:11:14 10° NNW visible
4 Apr ? 02:47:30 13° WNW 02:47:30 13° WNW 02:48:47 10° NW visible
4 Apr ? 22:49:39 10° ENE 22:51:22 12° NE 22:53:05 10° NNE visible
5 Apr ? 00:29:44 48° NE 00:29:44 48° NE 00:34:06 10° N visible
5 Apr ? 02:09:55 25° WNW 02:09:55 25° WNW 02:12:48 10° NNW visible
5 Apr ? 23:52:08 28° ENE 23:52:28 28° ENE 23:56:43 10° N visible
6 Apr ? 01:32:19 45° NW 01:32:19 45° NW 01:36:08 10° NNW visible
6 Apr ? 23:14:31 15° ENE 23:15:54 17° NE 23:18:59 10° NNE visible
7 Apr ? 00:54:42 66° NNE 00:54:42 66° NNE 00:59:08 10° NNW visible
7 Apr ? 02:34:53 18° WNW 02:34:53 18° WNW 02:37:10 10° NW visible
8 Apr ? 00:17:05 41° ENE 00:17:10 41° ENE 00:21:53 10° N visible
8 Apr ? 01:57:15 33° WNW 01:57:15 33° WNW 02:00:51 10° NNW visible
8 Apr ? 23:39:27 22° ENE 23:40:27 23° NE 23:44:23 10° N visible
9 Apr ? 01:19:37 62° NW 01:19:37 62° NW 01:24:01 10° NNW visible
9 Apr ? 02:59:47 12° WNW 02:59:47 12° WNW 03:00:49 10° WNW visible
9 Apr ? 23:01:48 11° ENE 23:03:54 14° NE 23:06:25 10° NNE visible
10 Apr ? 00:41:59 61° ENE 00:41:59 61° ENE 00:46:54 10° N visible
10 Apr ? 02:22:08 23° WNW 02:22:08 23° WNW 02:25:19 10° NW visible
11 Apr ? 00:04:19 32° ENE 00:05:03 33° ENE 00:09:33 10° N visible
11 Apr ? 01:44:29 43° WNW 01:44:29 43° WNW 01:48:44 10° NNW visible
11 Apr ? 23:26:39 17° ENE 23:28:21 20° NE 23:31:54 10° N visible
12 Apr ? 01:06:49 85° NW 01:06:49 85° NW 01:11:46 10° NNW visible
12 Apr ? 02:46:59 15° WNW 02:46:59 15° WNW 02:49:21 10° NW visible
12 Apr ? 22:50:10 10° ENE 22:51:50 12° NE 22:53:30 10° NNE visible
13 Apr ? 00:29:09 47° E 00:29:40 49° ENE 00:34:33 10° N visible
13 Apr ? 02:09:19 29° W 02:09:19 29° W 02:13:15 10° NNW visible
13 Apr ? 23:51:28 24° E 23:52:50 28° ENE 23:57:05 10° N visible
